Sedona, AZ

4:37 AM MST on July 28, 2017 (GMT -0700)
Sedona

Weather History for KSEZ - November, 2012

Change the Weather History Date:

Tuesday, November 13, 2012

  Actual Average Record
Temperature  
Mean Temperature 55 °F -  
Max Temperature 68 °F 65 °F 73 °F (2016)
Min Temperature 42 °F 37 °F 42 °F (2010)
Degree Days  
Heating Degree Days 10    
Growing Degree Days 5 (Base 50)    
Moisture  
Dew Point 11 °F    
Average Humidity 19    
Maximum Humidity 27    
Minimum Humidity 12    
Precipitation  
Precipitation 0.00 in - - ()
Sea Level Pressure  
Sea Level Pressure 30.25 in    
Wind  
Wind Speed 13 mph (ENE)    
Max Wind Speed 18 mph    
Max Gust Speed 23 mph    
Visibility 10 miles    
Events      
Averages and records for this station are not official NWS values.
T = Trace of Precipitation, MM = Missing Value Source: NWS Daily Summary

Daily Weather History Graph

Daily Weather History Graph

Search for Another Location

Airport or City:

Trip Planner

Search our weather history database for the weather conditions in past years. The results will help you decide how hot, cold, wet, or windy it might be!

Date:

Astronomy

Nov. 13, 2012 Rise Set
Actual Time 6:59 AM MST 5:22 PM MST
Civil Twilight 6:33 AM MST 5:49 PM MST
Nautical Twilight 6:02 AM MST 6:19 PM MST
Astronomical Twilight 5:32 AM MST 6:49 PM MST
Moon 6:41 AM MST (11/13) 5:20 PM MST (11/13)
Length of Visible Light 11h 16m
Length of Day
10h 22m
Waning Crescent, 0% of the Moon is Illuminated
Nov 13
Waning Crescent
Nov 13
New
Nov 20
First Quarter
Nov 28
Full
Dec 6
Last Quarter

Hourly Weather History & Observations

Time (MST) Temp. Windchill Dew Point Humidity Pressure Visibility Wind Dir Wind Speed Gust Speed Precip Events Conditions
12:15 AM 42.8 °F 35.4 °F 10.4 °F 27% 30.28 in 10.0 mi NE 15.0 mph - N/A   Clear
12:35 AM 44.6 °F 37.4 °F 10.4 °F 25% 30.27 in 10.0 mi ENE 16.1 mph - N/A   Clear
12:55 AM 44.6 °F 37.4 °F 10.4 °F 25% 30.27 in 10.0 mi NE 16.1 mph 21.9 mph N/A   Clear
1:15 AM 44.6 °F 37.8 °F 10.4 °F 25% 30.26 in 10.0 mi ENE 15.0 mph 21.9 mph N/A   Clear
1:35 AM 44.6 °F 38.1 °F 10.4 °F 25% 30.27 in 10.0 mi NE 13.8 mph 18.4 mph N/A   Clear
1:55 AM 44.6 °F 38.1 °F 10.4 °F 25% 30.27 in 10.0 mi ENE 13.8 mph - N/A   Clear
2:15 AM 44.6 °F 38.4 °F 10.4 °F 25% 30.27 in 10.0 mi ENE 12.7 mph - N/A   Clear
2:35 AM 44.6 °F 38.1 °F 8.6 °F 23% 30.27 in 10.0 mi NE 13.8 mph 20.7 mph N/A   Clear
2:55 AM 44.6 °F 37.8 °F 8.6 °F 23% 30.27 in 10.0 mi ENE 15.0 mph 20.7 mph N/A   Clear
3:15 AM 44.6 °F 38.1 °F 8.6 °F 23% 30.27 in 10.0 mi ENE 13.8 mph 20.7 mph N/A   Clear
3:35 AM 42.8 °F 35.1 °F 8.6 °F 25% 30.27 in 10.0 mi NE 16.1 mph - N/A   Clear
3:55 AM 42.8 °F 34.8 °F 8.6 °F 25% 30.26 in 10.0 mi NE 17.3 mph 23.0 mph N/A   Clear
4:15 AM 42.8 °F 36.2 °F 8.6 °F 25% 30.26 in 10.0 mi ENE 12.7 mph - N/A   Clear
4:55 AM 42.8 °F 35.4 °F 8.6 °F 25% 30.26 in 10.0 mi ENE 15.0 mph 23.0 mph N/A   Clear
5:15 AM 42.8 °F 35.4 °F 8.6 °F 25% 30.25 in 10.0 mi ENE 15.0 mph 21.9 mph N/A   Clear
5:35 AM 42.8 °F 35.8 °F 8.6 °F 25% 30.26 in 10.0 mi NE 13.8 mph 19.6 mph N/A   Clear
5:55 AM 42.8 °F 35.4 °F 8.6 °F 25% 30.26 in 10.0 mi NE 15.0 mph 23.0 mph N/A   Clear
6:15 AM 42.8 °F 36.2 °F 8.6 °F 25% 30.28 in 10.0 mi ENE 12.7 mph 18.4 mph N/A   Clear
6:35 AM 42.8 °F 37.0 °F 8.6 °F 25% 30.28 in 10.0 mi ENE 10.4 mph 17.3 mph N/A   Clear
6:55 AM 42.8 °F 37.0 °F 8.6 °F 25% 30.29 in 10.0 mi ENE 10.4 mph - N/A   Clear
7:15 AM 42.8 °F 36.6 °F 8.6 °F 25% 30.29 in 10.0 mi ENE 11.5 mph - N/A   Clear
7:35 AM 42.8 °F 38.0 °F 8.6 °F 25% 30.30 in 10.0 mi East 8.1 mph - N/A   Clear
7:55 AM 44.6 °F 39.7 °F 8.6 °F 23% 30.30 in 10.0 mi East 9.2 mph - N/A   Clear
8:15 AM 46.4 °F 42.9 °F 10.4 °F 23% 30.30 in 10.0 mi East 6.9 mph - N/A   Clear
8:35 AM 48.2 °F - 10.4 °F 22% 30.30 in 10.0 mi ESE 5.8 mph - N/A   Clear
8:55 AM 50.0 °F - 10.4 °F 20% 30.29 in 10.0 mi East 8.1 mph - N/A   Clear
9:15 AM 51.8 °F - 10.4 °F 19% 30.29 in 10.0 mi East 10.4 mph 16.1 mph N/A   Clear
9:35 AM 53.6 °F - 10.4 °F 18% 30.29 in 10.0 mi East 11.5 mph 18.4 mph N/A   Clear
9:55 AM 55.4 °F - 10.4 °F 17% 30.28 in 10.0 mi East 10.4 mph 16.1 mph N/A   Clear
10:15 AM 59.0 °F - 10.4 °F 15% 30.28 in 10.0 mi East 9.2 mph 17.3 mph N/A   Clear
10:35 AM 60.8 °F - 12.2 °F 15% 30.27 in 10.0 mi East 10.4 mph 17.3 mph N/A   Clear
10:55 AM 60.8 °F - 14.0 °F 16% 30.26 in 10.0 mi SSW 6.9 mph - N/A   Clear
11:15 AM 59.0 °F - 14.0 °F 17% 30.26 in 10.0 mi SW 5.8 mph - N/A   Clear
11:55 AM 60.8 °F - 14.0 °F 16% 30.25 in 10.0 mi South 4.6 mph - N/A   Clear
12:15 PM 60.8 °F - 14.0 °F 16% 30.25 in 10.0 mi South 5.8 mph - N/A   Clear
12:35 PM 60.8 °F - 14.0 °F 16% 30.24 in 10.0 mi WSW 3.5 mph - N/A   Clear
12:55 PM 60.8 °F - 14.0 °F 16% 30.23 in 10.0 mi West 4.6 mph - N/A   Clear
1:15 PM 62.6 °F - 15.8 °F 16% 30.23 in 10.0 mi South 6.9 mph - N/A   Clear
1:35 PM 64.4 °F - 14.0 °F 14% 30.22 in 10.0 mi SSW 6.9 mph - N/A   Clear
1:55 PM 64.4 °F - 14.0 °F 14% 30.21 in 10.0 mi South 3.5 mph - N/A   Clear
2:15 PM 64.4 °F - 14.0 °F 14% 30.21 in 10.0 mi SE 4.6 mph - N/A   Clear
2:35 PM 68.0 °F - 14.0 °F 12% 30.20 in 10.0 mi East 3.5 mph - N/A   Clear
2:55 PM 68.0 °F - 14.0 °F 12% 30.20 in 10.0 mi East 4.6 mph - N/A   Clear
3:15 PM 68.0 °F - 14.0 °F 12% 30.19 in 10.0 mi East 5.8 mph - N/A   Clear
3:35 PM 66.2 °F - 14.0 °F 13% 30.20 in 10.0 mi ESE 9.2 mph - N/A   Clear
3:55 PM 66.2 °F - 14.0 °F 13% 30.20 in 10.0 mi ENE 6.9 mph - N/A   Clear
4:15 PM 64.4 °F - 14.0 °F 14% 30.21 in 10.0 mi NE 9.2 mph - N/A   Clear
4:35 PM 62.6 °F - 12.2 °F 14% 30.21 in 10.0 mi NE 10.4 mph - N/A   Clear
4:55 PM 60.8 °F - 12.2 °F 15% 30.21 in 10.0 mi NE 9.2 mph - N/A   Clear
5:15 PM 59.0 °F - 12.2 °F 16% 30.21 in 10.0 mi NE 13.8 mph - N/A   Clear
5:35 PM 57.2 °F - 12.2 °F 17% 30.21 in 10.0 mi NE 16.1 mph 20.7 mph N/A   Clear
5:55 PM 55.4 °F - 12.2 °F 18% 30.22 in 10.0 mi NE 16.1 mph - N/A   Clear
6:15 PM 55.4 °F - 12.2 °F 18% 30.22 in 10.0 mi ENE 15.0 mph 23.0 mph N/A   Clear
6:35 PM 53.6 °F - 12.2 °F 19% 30.23 in 10.0 mi ENE 12.7 mph 20.7 mph N/A   Clear
6:55 PM 53.6 °F - 10.4 °F 18% 30.23 in 10.0 mi NE 16.1 mph 20.7 mph N/A   Clear
7:15 PM 53.6 °F - 8.6 °F 16% 30.23 in 10.0 mi NE 16.1 mph - N/A   Clear
7:35 PM 53.6 °F - 8.6 °F 16% 30.24 in 10.0 mi ENE 15.0 mph 23.0 mph N/A   Clear
7:55 PM 51.8 °F - 10.4 °F 19% 30.24 in 10.0 mi NE 11.5 mph 21.9 mph N/A   Clear
8:15 PM 51.8 °F - 10.4 °F 19% 30.24 in 10.0 mi ENE 15.0 mph 19.6 mph N/A   Clear
8:35 PM 51.8 °F - 8.6 °F 18% 30.25 in 10.0 mi ENE 16.1 mph - N/A   Clear
8:55 PM 51.8 °F - 8.6 °F 18% 30.25 in 10.0 mi ENE 16.1 mph 20.7 mph N/A   Clear
9:15 PM 51.8 °F - 8.6 °F 18% 30.25 in 10.0 mi ENE 16.1 mph 23.0 mph N/A   Clear
9:35 PM 51.8 °F - 8.6 °F 18% 30.26 in 10.0 mi NE 16.1 mph - N/A   Clear
9:55 PM 50.0 °F - 8.6 °F 19% 30.26 in 10.0 mi NE 17.3 mph - N/A   Clear
10:15 PM 50.0 °F - 8.6 °F 19% 30.25 in 10.0 mi ENE 17.3 mph - N/A   Clear
10:35 PM 50.0 °F - 8.6 °F 19% 30.25 in 10.0 mi NE 17.3 mph 23.0 mph N/A   Clear
10:55 PM 50.0 °F - 8.6 °F 19% 30.25 in 10.0 mi NE 17.3 mph 21.9 mph N/A   Clear
11:15 PM 50.0 °F - 8.6 °F 19% 30.25 in 10.0 mi ENE 18.4 mph - N/A   Clear
11:35 PM 51.8 °F - 6.8 °F 16% 30.25 in 10.0 mi NE 17.3 mph - N/A   Clear
11:55 PM 51.8 °F - 5.0 °F 15% 30.25 in 10.0 mi ENE 16.1 mph - N/A   Clear